星链-2099 (STARLINK-2099 )

导读 | 豆包AI

STARLINK-2099是美国SpaceX公司星链(Starlink)项目的互联网通信卫星,于2021年1月20日发射升空,是星链低轨卫星星座的组成部分。 星链项目旨在为全球偏远、网络覆盖薄弱地区提供低延迟高速宽带服务,该卫星运行在近地轨道,依托星座组网实现全球覆盖,目前星链已在全球超60个国家和地区落地商用,为全球互联网普及提供支持。

基本信息
目录编号:
47379
目录名称:
STARLINK-2099
国际标识:
2021-005AG
轨道中心:
EARTH
卫星名称:
星链-2099
卫星全名:
星链-2099 (STARLINK-2099 )
卫星状态:
在轨 (已飞行1879 天)
发射日期:
2021-01-20 UTC
国别 :
美国 (US)
星等 :
--
轨道信息
数据来源 国际轨道数据 AOE轨道数据
星历时间 2026-03-14T06:17:13+0800
12小时前
查看轨道信息
2026-03-12T16:00:00+0800
2天前
查看轨道信息
半长轴 6853.353km 6853.444km
偏心率 0.0001086 0.0001201
轨道倾角 53.159° 53.158°
近地点辐角 88.352° 75.501°
升交点赤经 353.852° 1.265°
平近点角 271.760° 131.688°
近地点 474.471km 474.483km
远地点 475.961km 476.131km
周期 94.105分钟 94.107分钟
每日圈数 15.301997 15.301695
详细信息
固有亮度:
5
最大亮度:
2.5
卫星平台:
Starlink V1.0
覆盖范围:
全球
运营商:
太空探索技术公司
运营商所在国:
美国
制造商(研发单位):
太空探索技术公司
制造商所在国:
美国
使用方式:
暂无
卫星简介
星链(Starlink)计划是由太空探索技术公司(SpaceX)提出的一个巨型低轨卫星互联网星座项目,计划在2019年至2024年间在太空搭建由约1.2万颗卫星组成的“星链”网络,其中1584颗将部署在地球上空550千米处的近地轨道,并从2020年开始工作。该卫星仍在工作。
2D轨道图
3D轨道图
轨道高度分析图
轨道倾角分析图
轨道综合分析图
查看轨道综合分析图